Sadsburyville, PA

2:02 AM EDT on July 24, 2016 (GMT -0400)
Chester County Carlson

Weather History for KMQS - March, 2014

Change the Weather History Date:

Monday, March 17, 2014

  Actual Average (KLNS) Record (KLNS)
Temperature  
Mean Temperature 28 °F -  
Max Temperature 32 °F 51 °F 71 °F (2012)
Min Temperature 23 °F 30 °F 19 °F (1992)
Degree Days  
Heating Degree Days 38    
Moisture  
Dew Point 16 °F    
Average Humidity 61    
Maximum Humidity 93    
Minimum Humidity 34    
Precipitation  
Precipitation 3.01 in - - ()
Sea Level Pressure  
Sea Level Pressure 30.05 in    
Wind  
Wind Speed 6 mph (NE)    
Max Wind Speed 13 mph    
Max Gust Speed 23 mph    
Visibility 7 miles    
Events Snow    
Averages and records for this station are not official NWS values.
T = Trace of Precipitation, MM = Missing Value Source: NWS Daily Summary

Daily Weather History Graph

Daily Weather History Graph

Search for Another Location

Airport or City:

Trip Planner

Search our weather history database for the weather conditions in past years. The results will help you decide how hot, cold, wet, or windy it might be!

Date:

Astronomy

Mar. 17, 2014 Rise Set
Actual Time 7:11 AM EDT 7:12 PM EDT
Civil Twilight 6:44 AM EDT 7:39 PM EDT
Nautical Twilight 6:13 AM EDT 8:10 PM EDT
Astronomical Twilight 5:41 AM EDT 8:42 PM EDT
Moon 8:26 PM EDT (3/17) 7:26 AM EDT (3/17)
Length of Visible Light 12h 54m
Length of Day
12h 00m
Full, 99% of the Moon is Illuminated
Mar 17
Full
Mar 23
Last Quarter
Mar 30
New
Apr 7
First Quarter
Apr 15
Full

Hourly Weather History & Observations

Time (EDT) Temp. Windchill Dew Point Humidity Pressure Visibility Wind Dir Wind Speed Gust Speed Precip Events Conditions
12:15 AM 30.2 °F 25.4 °F 5.0 °F 34% 30.10 in 10.0 mi NE 4.6 mph 16.1 mph N/A   Scattered Clouds
12:35 AM 30.2 °F 22.6 °F 5.0 °F 34% 30.10 in 9.0 mi NE 8.1 mph 19.6 mph N/A Snow Light Snow
12:55 AM 28.4 °F 18.0 °F 8.6 °F 43% 30.09 in 9.0 mi NNE 12.7 mph 23.0 mph N/A Snow Light Snow
1:15 AM 28.4 °F 22.2 °F 8.6 °F 43% 30.08 in 10.0 mi NE 5.8 mph 16.1 mph N/A   Partly Cloudy
1:35 AM 28.4 °F 20.4 °F 5.0 °F 37% 30.07 in 10.0 mi NE 8.1 mph - N/A   Clear
2:15 AM 28.4 °F 23.3 °F 6.8 °F 40% 30.04 in 10.0 mi NE 4.6 mph 17.3 mph N/A Snow Light Snow
2:35 AM 28.4 °F 22.2 °F 10.4 °F 47% 30.03 in 8.0 mi NE 5.8 mph - N/A   Mostly Cloudy
2:55 AM 28.4 °F 21.2 °F 8.6 °F 43% 30.02 in 10.0 mi NE 6.9 mph 16.1 mph N/A   Partly Cloudy
3:15 AM 28.4 °F 21.2 °F 6.8 °F 40% 30.02 in 10.0 mi ENE 6.9 mph - N/A   Partly Cloudy
3:35 AM 28.4 °F 20.4 °F 8.6 °F 43% 30.02 in 10.0 mi ENE 8.1 mph 23.0 mph N/A Snow Light Snow
3:55 AM 26.6 °F 16.8 °F 12.2 °F 55% 30.03 in 4.0 mi ENE 10.4 mph 21.9 mph N/A Snow Light Snow
4:15 AM 24.8 °F 20.5 °F 15.8 °F 69% 30.05 in 2.0 mi ENE 3.5 mph - 0.05 in Snow Light Snow
4:35 AM 23.0 °F 14.7 °F 19.4 °F 86% 30.05 in 1.2 mi ENE 6.9 mph - 0.30 in Snow Light Snow
4:55 AM 23.0 °F - 21.2 °F 93% 30.04 in 1.2 mi Calm Calm - 0.68 in Snow Light Snow
5:15 AM 23.0 °F 18.4 °F 21.2 °F 93% 30.04 in 1.8 mi NNE 3.5 mph - 0.22 in Snow Light Snow
5:35 AM 23.0 °F 17.0 °F 21.2 °F 93% 30.03 in 1.5 mi NNE 4.6 mph - 0.50 in Snow Light Snow
5:55 AM 23.0 °F 18.4 °F 21.2 °F 93% 30.03 in 2.0 mi NNE 3.5 mph - 0.73 in Snow Light Snow
6:15 AM 23.0 °F 17.0 °F 21.2 °F 93% 30.02 in 1.5 mi NE 4.6 mph - 0.22 in Snow Light Snow
6:35 AM 23.0 °F 18.4 °F 21.2 °F 93% 30.03 in 1.2 mi NE 3.5 mph - 0.67 in Snow Snow
6:55 AM 23.0 °F 15.8 °F 21.2 °F 93% 30.03 in 3.0 mi NNE 5.8 mph - 0.85 in Snow Light Snow
7:15 AM 23.0 °F 17.0 °F 21.2 °F 93% 30.04 in 3.0 mi NNE 4.6 mph - 0.06 in Snow Light Snow
7:35 AM 23.0 °F 17.0 °F 21.2 °F 93% 30.03 in 1.0 mi NE 4.6 mph - 0.31 in Snow Light Snow
7:55 AM 23.0 °F 15.8 °F 21.2 °F 93% 30.03 in 2.5 mi ENE 5.8 mph - 0.43 in Snow Light Snow
8:15 AM 23.0 °F 15.8 °F 19.4 °F 86% 30.05 in 10.0 mi NE 5.8 mph - N/A   Mostly Cloudy
8:35 AM 23.0 °F 18.4 °F 19.4 °F 86% 30.06 in 10.0 mi ENE 3.5 mph - N/A   Mostly Cloudy
8:55 AM 23.0 °F 17.0 °F 17.6 °F 80% 30.06 in 9.0 mi NE 4.6 mph - N/A Snow Light Snow
9:15 AM 24.8 °F 19.1 °F 17.6 °F 74% 30.07 in 3.0 mi NNE 4.6 mph - 0.03 in Snow Light Snow
9:35 AM 23.0 °F 14.7 °F 17.6 °F 80% 30.05 in 3.0 mi NNE 6.9 mph - 0.07 in Snow Light Snow
9:55 AM 23.0 °F 17.0 °F 19.4 °F 86% 30.04 in 2.5 mi NNE 4.6 mph - 0.13 in Snow Light Snow
10:15 AM 23.0 °F 17.0 °F 17.6 °F 80% 30.05 in 6.0 mi North 4.6 mph - N/A Snow Light Snow
10:35 AM 24.8 °F 20.5 °F 17.6 °F 74% 30.05 in 7.0 mi NNE 3.5 mph - 0.01 in Snow Light Snow
10:55 AM 26.6 °F 22.6 °F 17.6 °F 69% 30.05 in 5.0 mi NE 3.5 mph - 0.02 in Snow Light Snow
11:15 AM 26.6 °F 18.2 °F 17.6 °F 69% 30.05 in 5.0 mi North 8.1 mph - N/A Snow Light Snow
11:35 AM 26.6 °F 17.5 °F 17.6 °F 69% 30.06 in 3.0 mi North 9.2 mph - 0.04 in Snow Light Snow
11:55 AM 26.6 °F 16.8 °F 12.2 °F 55% 30.07 in 2.0 mi North 10.4 mph - 0.11 in Snow Light Snow
12:15 PM 26.6 °F 17.5 °F 14.0 °F 59% 30.07 in 3.0 mi North 9.2 mph - 0.03 in Snow Light Snow
12:35 PM 28.4 °F 20.4 °F 14.0 °F 55% 30.06 in 5.0 mi NNE 8.1 mph - 0.05 in Snow Light Snow
12:55 PM 28.4 °F 20.4 °F 12.2 °F 51% 30.05 in 10.0 mi NNE 8.1 mph - 0.06 in Snow Light Snow
1:15 PM 28.4 °F 22.2 °F 14.0 °F 55% 30.05 in 10.0 mi NNE 5.8 mph - N/A   Clear
1:35 PM 28.4 °F 24.6 °F 14.0 °F 55% 30.05 in 10.0 mi NE 3.5 mph - N/A   Clear
1:55 PM 30.2 °F 25.4 °F 14.0 °F 51% 30.04 in 5.0 mi NNE 4.6 mph - N/A Snow Light Snow
2:15 PM 30.2 °F 25.4 °F 15.8 °F 55% 30.03 in 5.0 mi North 4.6 mph - N/A   Haze
2:35 PM 30.2 °F 24.3 °F 17.6 °F 60% 30.01 in 10.0 mi NNE 5.8 mph - N/A   Clear
2:55 PM 32.0 °F 28.7 °F 17.6 °F 55% 30.02 in 10.0 mi NE 3.5 mph - N/A   Partly Cloudy
3:15 PM 32.0 °F 27.5 °F 17.6 °F 55% 30.02 in 10.0 mi NE 4.6 mph - N/A   Mostly Cloudy
3:35 PM 32.0 °F 27.5 °F 15.8 °F 51% 30.03 in 10.0 mi ENE 4.6 mph - N/A   Mostly Cloudy
3:55 PM 32.0 °F 28.7 °F 17.6 °F 55% 30.02 in 10.0 mi ENE 3.5 mph - N/A   Overcast
4:15 PM 32.0 °F 27.5 °F 17.6 °F 55% 30.03 in 10.0 mi ENE 4.6 mph - N/A   Overcast
4:35 PM 32.0 °F 28.7 °F 17.6 °F 55% 30.03 in 10.0 mi NE 3.5 mph - N/A   Mostly Cloudy
4:55 PM 32.0 °F 28.7 °F 17.6 °F 55% 30.02 in 10.0 mi ENE 3.5 mph - N/A   Overcast
5:15 PM 32.0 °F - 15.8 °F 51% 30.03 in 10.0 mi Calm Calm - N/A   Overcast
5:35 PM 32.0 °F 27.5 °F 17.6 °F 55% 30.04 in 10.0 mi NNE 4.6 mph - N/A   Overcast
5:55 PM 32.0 °F 28.7 °F 15.8 °F 51% 30.04 in 10.0 mi NE 3.5 mph - N/A   Mostly Cloudy
6:15 PM 32.0 °F 28.7 °F 15.8 °F 51% 30.04 in 10.0 mi NE 3.5 mph - N/A   Overcast
6:35 PM 32.0 °F 27.5 °F 15.8 °F 51% 30.04 in 10.0 mi NE 4.6 mph - N/A   Overcast
6:55 PM 32.0 °F - 15.8 °F 51% 30.05 in 10.0 mi Calm Calm - N/A   Overcast
7:15 PM 32.0 °F 27.5 °F 15.8 °F 51% 30.05 in 10.0 mi ENE 4.6 mph - N/A   Overcast
7:35 PM 32.0 °F 27.5 °F 15.8 °F 51% 30.05 in 10.0 mi ENE 4.6 mph - N/A   Overcast
7:55 PM 32.0 °F - 15.8 °F 51% 30.06 in 10.0 mi Calm Calm - N/A   Overcast
8:15 PM 32.0 °F - 15.8 °F 51% 30.06 in 10.0 mi Calm Calm - N/A   Overcast
8:35 PM 32.0 °F 27.5 °F 15.8 °F 51% 30.06 in 10.0 mi ENE 4.6 mph - N/A   Overcast
8:55 PM 32.0 °F 26.4 °F 14.0 °F 48% 30.07 in 10.0 mi ENE 5.8 mph - N/A   Overcast
9:15 PM 32.0 °F 25.6 °F 14.0 °F 48% 30.08 in 10.0 mi ENE 6.9 mph - N/A   Overcast
9:35 PM 32.0 °F 28.7 °F 15.8 °F 51% 30.10 in 10.0 mi ENE 3.5 mph - N/A   Overcast
9:55 PM 32.0 °F 28.7 °F 14.0 °F 48% 30.09 in 10.0 mi ENE 3.5 mph - N/A   Overcast
10:15 PM 32.0 °F - 14.0 °F 48% 30.09 in 10.0 mi Calm Calm - N/A   Overcast
10:35 PM 32.0 °F 24.8 °F 15.8 °F 51% 30.10 in 10.0 mi East 8.1 mph - N/A   Overcast
10:55 PM 32.0 °F 28.7 °F 17.6 °F 55% 30.10 in 10.0 mi ENE 3.5 mph - N/A   Overcast
11:35 PM 32.0 °F 24.2 °F 15.8 °F 51% 30.10 in 10.0 mi East 9.2 mph - N/A   Overcast
11:55 PM 32.0 °F 25.6 °F 15.8 °F 51% 30.09 in 10.0 mi East 6.9 mph - N/A   Overcast